Regional Weather Roundup
Issued by NWS

Home | Current Version | Previous Version | Text Only | Print | Product List | Glossary On
Versions: 1 2 3 4 5 6 7 8 9 10 11 12 13 14 15 16 17 18 19 20 21 22 23 24 25 26 27 28 29 30 31 32 33 34 35 36 37 38 39 40 41 42 43 44 45 46 47 48 49 50
000
ASUS43 KMPX 212101
RWRMN
WEATHER ROUNDUP FOR MINNESOTA
NATIONAL WEATHER SERVICE TWIN CITIES/CHANHASSEN MN
400 PM CDT THU SEP 21 2017


NOTE: "FAIR" INDICATES FEW OR NO CLOUDS BELOW 12,000 FEET WITH NO
SIGNIFICANT WEATHER AND/OR OBSTRUCTIONS TO VISIBILITY. N/A MEANS
CURRENT SKY AND/OR WEATHER CONDITIONS ARE NOT AVAILABLE.

MNZ060>063-068>070-212200-
   Twin Cities Metro

CITY           SKY/WX    TMP DP  RH WIND       PRES   REMARKS
TWIN CITIES    MOSUNNY   83  69  62 SE14G22   29.82F
ST PAUL        SUNNY     80  68  66 SE15G24   29.83F
CRYSTAL        SUNNY     80  64  58 SE12      29.81F
BLAINE         MOSUNNY   82  66  57 SE16      29.83F
LAKEVILLE      SUNNY     82  68  61 SE12      29.82F
EDEN PRAIRIE   SUNNY     82  68  62 SE17      29.80F
SOUTH ST PAUL  SUNNY     81  66  60 SE7G18    29.83F
LAKE ELMO      FAIR      79  68  69 SE13G22   29.86F
$$
MNZ001>005-007-008-013>017-022>024-027-028-212200-
   Northwest Minnesota

CITY           SKY/WX    TMP DP  RH WIND       PRES   REMARKS
BEMIDJI        SUNNY     73  49  42 SE15      29.80F
HALLOCK        CLOUDY    79  41  25 S21G26    29.70F
ROSEAU         SUNNY     75  46  35 SE10      29.76F
WARROAD        SUNNY     75  48  38 SE12G21   29.78F
CROOKSTON      SUNNY     79  45  29 S16G24    29.71F
FOSSTON        SUNNY     77  46  33 SE14G24   29.76F
DETROIT LAKES  MOSUNNY   75  48  38 SE12      29.77F
MOORHEAD       MOSUNNY   81  46  30 S18       29.71F
PARK RAPIDS    SUNNY     77  50  38 SE15      29.79F
MAHNOMEN       FAIR      76  48  37 SE10G17   29.75F
$$
MNZ006-009>011-018-025>026-212200-
   North Central Minnesota

CITY           SKY/WX    TMP DP  RH WIND       PRES   REMARKS
BAUDETTE       SUNNY     75  45  34 SE18G25   29.80F
FLAG ISLAND    SUNNY     72  48  43 S9        29.79F
INTL FALLS     SUNNY     71  47  42 SE15G23   29.86F
WASKISH        SUNNY     73  50  43 SE10G21   29.81F
BIG FORK       SUNNY     72  48  43 SE12G17   29.87F
LONGVILLE      SUNNY     75  48  38 SE10G17   29.82F
GRAND RAPIDS   SUNNY     73  52  47 E8        29.87F
CRANE LAKE     SUNNY     72  50  46 SE8       29.92F
ORR            SUNNY     73  45  35 SE10G17   29.87S
COOK           SUNNY     72  45  37 SE9       29.91S
WALKER         FAIR      72  50  45 E6        29.81F
$$
MNZ012-019>021-037-212200-
   Northeast Minnesota

CITY           SKY/WX    TMP DP  RH WIND       PRES   REMARKS
DULUTH         MOSUNNY   69  57  65 E15       29.92F
ELY            SUNNY     72  45  37 SE10G21   29.94S
HIBBING        SUNNY     72  47  40 SE12      29.90F
EVELETH        SUNNY     73  29  20 E8        29.92F
DULUTH HARBOR  SUNNY     63  61  94 NE20      29.93F
TWO HARBORS    SUNNY     72  59  64 E17       29.93F
SILVER BAY     SUNNY     66  57  72 NE12      29.96F
GRAND MARAIS     N/A     63  57  81 NE13G20   29.99F
$$
MNZ029>031-032-039>041-046>048-054>057-064-212200-
   West Central Minnesota

CITY           SKY/WX    TMP DP  RH WIND       PRES   REMARKS
FERGUS FALLS   PTSUNNY   79  57  47 SE16      29.72F
WHEATON        PTSUNNY   81  63  54 SE16G23   29.71F
MORRIS         MOSUNNY   82  64  54 SE16      29.72F
ALEXANDRIA     SUNNY     79  62  56 SE15G23   29.78F
ELBOW LAKE     FAIR      78  64  63 SE15G21   29.74S HAZE
WADENA         MOSUNNY   75  54  46 SE14      29.78F
GLENWOOD       SUNNY     79  64  61 SE17G25   29.77F
APPLETON       MOSUNNY   81  66  61 SE13G21   29.71F
BENSON         SUNNY     81  66  61 S16G22    29.75S
ORTONVILLE     PTSUNNY   81  66  61 NE14      29.69F
MADISON        MOSUNNY   86  70  58 SE15G24   29.70F HX  90
WILLMAR        FAIR      82  70  65 SE16G23   29.77S
$$
MNZ033>034-036-042>043-049>051-058-059-212200-
   Central Minnesota

CITY           SKY/WX    TMP DP  RH WIND       PRES   REMARKS
ST CLOUD       SUNNY     80  65  59 SE14      29.80F
SAUK CENTRE    FAIR      77  64  63 E14       29.78F
PAYNESVILLE    SUNNY     80  67  64 SE15      29.78F
AITKIN         SUNNY     75  54  46 SE12      29.83F
PINE RIVER     SUNNY     72  48  43 SE16      29.84F
BRAINERD       SUNNY     74  53  48 E12G21    29.82F
STAPLES          N/A     77  52  41 SE6       29.79
LITTLE FALLS   SUNNY     77  50  38 SE12G20   29.81F
LITCHFIELD     SUNNY     82  70  65 SE13G24   29.79F
BUFFALO        MOSUNNY   80  65  61 SE13G21   29.82F
MAPLE LAKE     SUNNY     80  69  68 SE12G18   29.81F
HUTCHINSON     SUNNY     82  70  65 SE16      29.80F
$$
MNZ037-044-045-052-053-212200-
   East Central Minnesota

CITY           SKY/WX    TMP DP  RH WIND       PRES   REMARKS
PRINCETON      SUNNY     81  64  57 E14       29.82F
MORA           SUNNY     77  59  53 SE9       29.86F
RUSH CITY      SUNNY     80  63  57 SE8       29.85F
MOOSE LAKE     SUNNY     75  59  57 NE5       29.86F
HINCKLEY       FAIR      79  59  50 SE8       29.86F
CLOQUET        SUNNY     66  55  68 E12       29.91F
MCGREGOR       SUNNY     77  52  41 SE13      29.87F
$$
MNZ071>073-080-081-089-090-097-098-212200-
   Southwest Minnesota

CITY           SKY/WX    TMP DP  RH WIND       PRES   REMARKS
MONTEVIDEO     SUNNY     84  68  58 S17G24    29.72F
GRANITE FALLS  MOSUNNY   86  70  59 SE12G23   29.74F HX  90
CANBY          MOSUNNY   84  69  61 E20       29.70F
MARSHALL       PTSUNNY   84  71  65 S18G24    29.72F
REDWOOD FALLS  PTSUNNY   85  68  56 SE18G29   29.75S
OLIVIA         PTSUNNY   82  68  61 S18       29.76S
PIPESTONE      MOSUNNY   84  70  61 S20G28    29.73F
WORTHINGTON    MOSUNNY   84  72  67 S22G29    29.76F
JACKSON        MOSUNNY   82  70  65 S15G25    29.79F
TRACY          MOSUNNY   84  72  68 SE18      29.74F
SLAYTON        MOSUNNY   83  71  66 SE20G25   29.75F
$$
MNZ065>067-074>077-082>085-091>093-212200-
   South Central Minnesota

CITY           SKY/WX    TMP DP  RH WIND       PRES   REMARKS
MANKATO        SUNNY     84  70  62 SE16      29.80F
NEW ULM        CLOUDY    82  68  61 SE9       29.78S
ST JAMES       MOSUNNY   86  72  62 SE20      29.78F HX  92
FAIRMONT       PTSUNNY   85  72  65 S17G25    29.79F HX  91
GLENCOE        SUNNY     83  71  66 E17       29.79F
FARIBAULT      SUNNY     82  70  65 SE12G18   29.83F
OWATONNA       SUNNY     84  70  61 SE16      29.83F
WASECA         SUNNY     82  68  61 SE9G17    29.83F
ALBERT LEA     SUNNY     90  72  55 S12G17    29.82F HX  96
$$
MNZ078>079-086>088-094>096-212200-
   Southeast Minnesota

CITY           SKY/WX    TMP DP  RH WIND       PRES   REMARKS
ROCHESTER      MOSUNNY   86  69  56 S14       29.87F HX  90
RED WING       SUNNY     82  64  54 SE12      29.84F
STANTON        SUNNY     84  67  56 S10G18    29.82F
DODGE CENTER   MOSUNNY   84  66  54 S14       29.86F
WINONA         SUNNY     90  64  43 S6        29.88F HX  91
AUSTIN         SUNNY     84  66  54 S17       29.84F
PRESTON        SUNNY     85  64  49 S15G21    29.89F
$$
ABBREVIATIONS USED IN REMARKS
   TC - TEMPERATURES IN CELSIUS
  WCI - WIND CHILL INDEX
   HX - HEAT INDEX
  VSB - VISIBILITY
$$




USA.gov is the U.S. government's official web portal to all federal, state and local government web resources and services.